Regional Weather Roundup
Issued by NWS

Home | Current Version | Previous Version | Text Only | Print | Product List | Glossary Off
Versions: 1 2 3 4 5 6 7 8 9 10 11 12 13 14 15 16 17 18 19 20 21 22 23 24 25 26 27 28 29 30 31 32 33 34 35 36 37 38 39 40 41 42 43 44 45 46 47 48 49 50

000
ASUS43 KMKX 280820
RWRWI

WISCONSIN REGIONAL WEATHER ROUNDUP
NATIONAL WEATHER SERVICE MILWAUKEE/SULLIVAN WI
300 AM CDT SAT MAR 28 2015

NOTE: "FAIR" INDICATES FEW OR NO CLOUDS BELOW 12,000 FEET WITH NO
SIGNIFICANT WEATHER AND/OR OBSTRUCTIONS TO VISIBILITY.

WIZ001-002-006>008-014>016-023>028-280900-
NORTHWEST WISCONSIN

CITY           SKY/WX    TMP DP  RH WIND       PRES   REMARKS
SUPERIOR ARPT  CLEAR     14  12  93 CALM      30.21S
ASHLAND        CLEAR     10   7  87 SW3       30.21S
HAYWARD        CLEAR     16   8  71 CALM      30.18R
SIREN          CLEAR     16   9  75 CALM      30.19S
CUMBERLAND     CLEAR     19  14  79 NE3       30.17S
RICE LAKE      PTCLDY    19  15  81 CALM      30.20R
CHETEK         CLEAR     17  13  84 CALM      30.19S
LADYSMITH      PTCLDY    20  14  80 CALM      30.19S
EAU CLAIRE     PTCLDY    19  12  74 CALM      30.19S
MENOMONIE      PTCLDY    23  16  75 CALM      30.20S
NEW RICHMOND   CLEAR     22  15  75 CALM      30.19S
OSCEOLA        CLEAR     21  13  72 SE5       30.22R WCI  15
$$

WIZ003>005-009-010-017-018-280900-
NORTH CENTRAL WISCONSIN

CITY           SKY/WX    TMP DP  RH WIND       PRES   REMARKS
MANITOWISH WTR CLEAR      8   5  89 CALM      30.16S
ARBOR VITAE    CLEAR     10   5  80 CALM      30.15F
WOODRUFF       CLEAR     10   5  80 CALM      30.15F
RHINELANDER    FAIR       8   2  76 CALM      30.16F
EAGLE RIVER    CLEAR      3  -3  78 CALM      30.16S
LAND O LAKES   CLEAR     -3  -7  84 CALM      30.17S
PHILLIPS       CLEAR     14   8  76 CALM      30.16S
TOMAHAWK       CLEAR      5   1  86 CALM      30.18S
MEDFORD        CLEAR     13  10  89 CALM      30.17S
MERRILL        CLEAR     10   6  87 CALM      30.19S
$$

WIZ029-030-035-036-043>047-280900-
CENTRAL WISCONSIN

CITY           SKY/WX    TMP DP  RH WIND       PRES   REMARKS
WAUSAU         CLEAR     16   8  71 E6        30.18S WCI   7
MOSINEE        CLEAR     18  10  73 E6        30.20S WCI   9
MARSHFIELD     CLEAR     19  10  68 W6        30.18S WCI  11
STEVENS POINT  CLEAR     11   6  80 CALM      30.21S
WAUPACA        CLEAR     19  13  79 CALM      30.24S
WAUTOMA        CLEAR     11   8  87 CALM      30.24R
WISC RAPIDS    CLEAR     14   8  77 CALM      30.21S
CAMP DOUGLAS   CLEAR     12  12  99 SE2       30.20S
$$

WIZ011>013-019>022-031-037>040-048>050-280900-
NORTHEAST WISCONSIN

CITY           SKY/WX    TMP DP  RH WIND       PRES   REMARKS
ANTIGO         CLEAR     14   6  70 SE7       30.18F WCI   4
SHAWANO        CLEAR     15  12  85 CALM      30.25S
OCONTO         FAIR      10   6  82 CALM      30.26S
STURGEON BAY   CLEAR     16   1  53 N3        30.26S
GREEN BAY      CLEAR     20  14  77 NW3       30.25S
MANITOWOC      CLEAR     16  14  92 CALM      30.25S
APPLETON       CLEAR     18  10  73 CALM      30.24R
CLINTONVILLE   CLEAR     18  12  79 CALM      30.24S
OSHKOSH        CLEAR     17  11  77 CALM      30.23S
$$

WIZ032>034-041-042-053>061-280900-
SOUTHWEST WISCONSIN

CITY           SKY/WX    TMP DP  RH WIND       PRES   REMARKS
LA CROSSE      PTCLDY    23  14  68 E3        30.22R
SPARTA         PTCLDY    13   9  84 CALM      30.22S
VIROQUA        PTCLDY    21  11  65 E3        30.18R
BOSCOBEL       CLEAR     16  12  84 CALM      30.22F
PRAIRIE DU CHI CLEAR     17  10  75 CALM      30.22S
PLATTEVILLE    CLEAR     22  15  75 E8        30.20S WCI  12
$$

WIZ056-057-062-063-064-067-068-280900-
SOUTH CENTRAL WISCONSIN

CITY           SKY/WX    TMP DP  RH WIND       PRES   REMARKS
REEDSBURG      CLEAR     17  14  88 CALM      30.21S
BARABOO/DELLS  CLEAR     19   8  64 CALM      30.21R
LONE ROCK      CLEAR     19  11  70 E3        30.22S
MINERAL POINT  CLEAR     21   9  58 SE3       30.19S
MADISON        CLEAR     21  12  68 S5        30.22R WCI  15
MIDDLETON      CLEAR     22  13  68 S3        30.22S
WATERTOWN      CLEAR     15  12  89 CALM      30.23S
MONROE         CLEAR     21  18  86 S8        30.20S WCI  12
JANESVILLE     CLEAR     21  14  73 CALM      30.22F
$$

WIZ051-052-058>065-066-070>072-280900-
SOUTHEAST WISCONSIN

CITY           SKY/WX    TMP DP  RH WIND       PRES   REMARKS
MILWAUKEE      FAIR      20  10  65 NW3       30.23S
WAUKESHA       CLEAR     14  10  85 W3        30.23S
MILWAUKEE/TIMM CLEAR     18  12  79 CALM      30.23F
RACINE         CLEAR     19  12  74 NW3       30.24S
BURLINGTON     CLEAR     13  11  92 CALM      30.23R
KENOSHA        CLEAR     20  13  74 N6        30.22F WCI  12
FOND DU LAC    CLEAR     13   9  84 CALM      30.23S
SHEBOYGAN      CLEAR     15  12  88 CALM      30.23S
WEST BEND      CLEAR     14  10  85 CALM      30.22F
JUNEAU         CLEAR     16  12  86 CALM      30.24R
$$

LSZ147-162-280900-
LAKE SUPERIOR

STATION/POSITION TIME  TEMP    WIND        PRES    WAVE
                       AIR SEA DIR/SP/G            HT/PER
                 (UTC) (F)     (DEG/KT/KT) (MB)    (FT/S)
DEVILS ISLAND    0800   25      CALM  /  1 1024.3F
PORT WING        0700   16     150/  2/  5 1023.0
SAXON HARBOR     0700   14        CALM     1023.0
$$

LMZ867-665-643>646-280900-
LAKE MICHIGAN

STATION/POSITION TIME  TEMP    WIND        PRES    WAVE
                       AIR SEA DIR/SP/G            HT/PER
                 (UTC) (F)     (DEG/KT/KT) (MB)    (FT/S)
NORTHPORT PIER   0720   18     340/  4/  8 1024.7R
SISTER BAY       0717   12        CALM       N/A
KEWAUNEE LAKESHO 0712   18     300/  1/  4 1023.3R
SHEBOYGAN LAKESH 0800   25      30/  4/  6 1025.2F
PORT WASHINGTON  0700   21     290/  3/  4 1024.7
MILWAUKEE LAKESH 0800   24     320/  3/  4   N/A
KENOSHA   LAKESH 0800   24     350/  6/  8 1023.7S
$$

TC  - TEMPERATURE IN CELSIUS
VSB - VISIBILITY IN STATUTE MILES
WCI - WIND CHILL INDEX
HX  - HEAT INDEX




USA.gov is the U.S. government's official web portal to all federal, state and local government web resources and services.